{"data":{"norad_id":64918,"epoch":"2026-09-20T22:14:50.989920Z","epoch_age_seconds":87333,"freshness":"FRESH","line1":"1 64918U 25157Q   26263.92697905  .00013762  00000+0  41779-3 0  9993","line2":"2 64918  53.1630 155.4025 0001160  98.3699 261.7435 15.34392753 66060","mean_motion":15.34392753,"eccentricity":0.000116,"inclination_deg":53.163,"raan_deg":155.4025,"arg_perigee_deg":98.3699,"mean_anomaly_deg":261.7435,"bstar":0.00041779,"rev_number":6606,"period_min":93.848201328151,"perigee_km":461.93123993665,"apogee_km":463.51831986959,"semimajor_km":6840.8617799031,"source":"CELESTRAK","updated_at":"2026-09-21T09:00:35.482454Z"}}